Location: Bajo Seco
(10.1333°N, 66.9667°W)
Time: 21:13:57
(UTC+00:00)

Daily predictions for brighter satellites

Satellite Brightness Start Highest point End
(mag) Time Altitude Azimuth Time Altitude Azimuth Time Altitude Azimuth
NOAA 6 4.1 22:48:50 10° SSE 22:54:01 89° W 22:59:11 10° NNW
SL-16 R/B 2.2 22:51:53 10° N 22:57:29 63° ENE 23:03:04 10° SSE
BLOCK DM-SL R/B 4.3 22:56:14 10° WSW 23:00:51 36° S 23:06:58 10° ESE
SL-27 R/B 4.4 23:00:36 10° SW 23:03:38 32° WNW 23:06:38 10° NNW
SL-24 R/B 4.0 22:59:31 10° SSE 23:03:45 73° ENE 23:07:59 10° N
SL-4 R/B 2.3 23:00:01 10° SW 23:04:35 88° NW 23:09:15 10° NE
Sakura Rocket 3.5 23:01:52 10° NW 23:05:17 33° NNE 23:08:31 11° E
Cosmos 2360 Rocket 3.1 23:00:46 10° NNE 23:05:29 27° ENE 23:10:12 10° SE
SEDSat Delta rocket 3.8 23:00:09 10° WNW 23:05:44 82° SSW 23:12:05 10° SE
GPS 2-15 Rocket1 3.1 23:01:29 10° WNW 23:06:06 77° NNE 23:10:39 10° ESE
ARIANE 5 DEB (SYLDA) 4.0 23:04:47 10° WSW 23:08:26 62° S 23:18:34 12° E
CZ-4B DEB 4.4 23:03:57 10° SSE 23:09:17 51° ENE 23:14:37 10° N
Okean O Rocket 3.5 23:08:48 10° E 23:10:18 12° ENE 23:11:51 10° NE
BlueWalker 3 2.9 23:07:15 10° S 23:10:42 29° ESE 23:14:08 10° ENE
YAOGAN 1 3.4 23:07:40 10° SE 23:11:25 30° ENE 23:15:10 10° NNE
Kakehashi 4.4 23:02:04 10° WNW 23:16:40 69° NNE 23:22:01 13° ESE
FALCON 9 R/B 4.2 23:13:05 10° NNW 23:17:16 21° NNE 23:27:18 11° ENE
Ariane H10 4.1 23:06:41 10° WSW 23:17:35 38° SSW 23:20:27 13° ESE
Meteor 1-23 Rocket 4.5 23:13:22 10° NNE 23:18:38 44° E 23:23:57 10° SSE
YAOGAN 3 4.5 23:15:27 10° SSE 23:19:45 70° ENE 23:24:02 10° N
Cosmos 2123 Rocket 4.2 23:15:01 10° SSE 23:20:55 46° E 23:26:52 10° NNE
Cosmos 1452 Rocket 3.4 23:19:56 10° S 23:25:09 77° ESE 23:30:24 10° NNE
ATLAS 3B CENTAUR R/B 1.6 23:21:36 10° WSW 23:25:14 48° NNW 23:27:49 14° NE
PLATFORM 4.5 23:22:42 10° SSW 23:26:21 86° WNW 23:30:01 10° NNE
Cosmos 1331 Rocket 4.2 23:21:58 10° S 23:26:52 46° ESE 23:31:45 10° NNE
Cosmos 2237 4.4 23:21:14 10° NNW 23:26:54 78° WSW 23:32:34 10° SSE
FALCON 9 DEB 2.9 23:25:06 10° NW 23:27:17 47° SW 23:29:07 13° SSE
GPS 2-04 Rocket1 2.4 23:26:42 10° SW 23:30:12 62° SE 23:32:15 23° ENE
H-2A ROCKET BODY 3.2 23:28:29 10° SSW 23:32:15 16° S 23:33:41 13° SE
Spot 1 4.5 23:27:14 10° NNE 23:32:21 89° E 23:37:29 10° SSW
Cosmos 1842 3.0 23:29:08 10° N 23:32:54 73° E 23:36:40 10° S
Haruka 3.3 23:29:27 10° NW 23:32:56 56° NE 23:38:14 19° ESE
Cosmos 1805 3.6 23:29:36 10° SSE 23:33:08 37° E 23:36:40 10° NNE
Lacrosse 5 rocket 4.3 23:32:02 10° WSW 23:35:11 19° WNW 23:38:17 10° NNW
Cosmos 1153 Rocket 4.4 23:29:31 10° N 23:35:45 80° E 23:41:54 10° S
Tiangong 0.0 23:36:23 10° N 23:37:47 14° NNE 23:37:47 14° NNE
ARIANE 44LP R/B 4.2 23:38:28 10° SSW 23:39:06 11° S 23:39:10 11° S
Cosmos 1975 3.4 23:35:17 10° SSW 23:39:07 59° W 23:42:59 10° N
Cosmos 1726 2.2 23:36:09 10° SSE 23:39:29 44° E 23:42:48 10° NNE
Cosmos 2173 Rocket 4.2 23:37:56 10° NNE 23:44:01 49° E 23:50:04 10° SSE
OAO 1 4.5 23:38:39 10° NW 23:44:10 87° SW 23:47:29 25° SE
SL-23 DEB 4.5 23:38:38 10° NW 23:45:30 81° SW 23:48:20 20° SSE
Okean 3 3.5 23:43:49 10° N 23:47:57 52° E 23:51:30 14° SSE
Cosmos 1707 2.6 23:44:31 10° N 23:48:12 59° E 23:50:31 21° SSE
In-Cosmos 22 4.2 23:42:53 10° N 23:48:32 59° E 23:54:11 10° SSE
CZ-4B R/B 3.2 23:43:11 10° SSE 23:48:44 63° ENE 23:54:18 10° N
Cosmos 1674 2.9 23:47:40 10° N 23:50:46 44° ENE 23:50:46 44° ENE
GPS 2-12 Rocket1 3.2 23:46:57 10° WNW 23:51:19 54° NNE 23:52:28 41° ENE
Cosmos 2322 Rocket 2.9 23:46:28 10° NNW 23:51:59 54° WSW 23:57:31 10° S
Cosmos 2251 Rocket 4.4 23:47:33 10° NNW 23:52:34 50° WSW 23:57:36 10° S
Cosmos 1869 Rocket 3.7 23:49:01 10° S 23:53:19 72° W 23:57:36 10° N
Cosmos 2333 4.3 23:48:12 10° N 23:53:46 51° ENE 23:56:32 28° SE
Cosmos 1190 Rocket 4.0 23:48:57 10° N 23:54:03 57° ENE 23:57:11 23° SSE
Okean 1-7 2.8 23:51:21 10° N 23:55:39 68° E 23:58:57 16° SSE
